Date String (YYYY-MM-DD hh:mm:ss) UTC,Instrument flags,Ambient pressure (hPa),Sample flow (lpm),Bypass flow (lpm),Sample temperature (°C),Ambient temperature (°C),ASC tube jacket temperature (°C),LED temperature (°C),Box temperature (°C),Sample RH (%),Span deviation,Mass concentration (μg/m³),Mass concentration (μg/m³),Mass concentration (μg/m³)
DateTimeUTC,F1_M11,P_M11,Q1_M11,Q2_M11,T1_M11,T2_M11,T3_M11,T4_M11,T5_M11,U1_M11,ZSPAN_M11,X0_M11,X2_M11,X1_M11
2023-01-31 12:00:00,,0825.4,5.01,0.00,22.5,22.1,00.0,31.3,24.3,04.7,0000.3,0012.49,0008.03,0007.57
2023-01-31 12:01:00,,0825.4,4.98,0.00,22.6,22.9,00.0,31.3,24.5,04.7,0000.6,0012.20,0007.94,0007.49
2023-01-31 12:02:00,,0825.4,5.02,0.00,22.7,23.0,00.0,31.3,24.6,04.6,0000.8,0012.17,0007.92,0007.45
2023-01-31 12:03:00,,0825.4,5.01,0.00,22.6,22.3,00.0,31.3,24.4,04.6,0000.8,0012.20,0007.92,0007.45
2023-01-31 12:04:00,,0825.4,5.00,0.00,22.6,21.7,00.0,31.4,24.3,04.6,0000.5,0012.14,0007.93,0007.47
2023-01-31 12:05:00,,0825.4,5.02,0.00,22.5,21.3,00.0,31.4,24.1,04.6,0000.1,0011.42,0007.95,0007.48
2023-01-31 12:06:00,,0825.4,5.01,0.00,22.5,20.9,00.0,31.4,24.0,04.6,-000.3,0011.46,0007.97,0007.49
2023-01-31 12:07:00,,0825.5,4.99,0.00,22.4,20.7,00.0,31.3,23.9,04.6,-000.2,0011.44,0007.96,0007.48
2023-01-31 12:08:00,,0825.5,4.99,0.00,22.3,20.4,00.0,31.3,23.9,04.6,0000.1,0011.56,0008.02,0007.51
2023-01-31 12:09:00,,0825.4,4.99,0.00,22.3,20.8,00.0,31.3,23.9,04.6,0000.4,0011.66,0008.09,0007.57
2023-01-31 12:10:00,,0825.4,5.02,0.00,22.4,21.9,00.0,31.2,24.2,04.6,0000.3,0011.70,0008.16,0007.64
2023-01-31 12:11:00,,0825.5,4.99,0.00,22.5,22.7,00.0,31.2,24.4,04.6,0000.4,0011.84,0008.24,0007.70
2023-01-31 12:12:00,,0825.4,5.01,0.00,22.6,23.0,00.0,31.3,24.6,04.6,0000.4,0012.06,0008.36,0007.79
2023-01-31 12:13:00,,0825.4,5.00,0.00,22.6,22.4,00.0,31.3,24.4,04.5,0000.3,0012.12,0008.45,0007.89
2023-01-31 12:14:00,,0825.4,4.99,0.00,22.6,21.8,00.0,31.3,24.3,04.5,0000.4,0012.16,0008.50,0007.94
2023-01-31 12:15:00,,0825.5,5.00,0.00,22.5,21.3,00.0,31.3,24.1,04.5,0000.4,0012.23,0008.55,0007.98
2023-01-31 12:16:00,,0825.5,5.01,0.00,22.4,21.0,00.0,31.3,24.0,04.5,0000.5,0012.35,0008.61,0008.03
2023-01-31 12:17:00,,0825.4,5.00,0.00,22.4,20.6,00.0,31.3,23.9,04.5,0000.6,0012.34,0008.64,0008.07
2023-01-31 12:18:00,,0825.2,5.02,0.00,22.3,20.5,00.0,31.3,23.9,04.6,0000.6,0012.35,0008.67,0008.11
2023-01-31 12:19:00,,0825.0,5.00,0.00,22.3,21.4,00.0,31.2,24.1,04.6,0000.3,0012.27,0008.67,0008.13
2023-01-31 12:20:00,,0825.2,5.01,0.00,22.5,22.4,00.0,31.2,24.3,04.6,0000.3,0012.04,0008.55,0008.04
2023-01-31 12:21:00,,0825.4,5.00,0.00,22.6,23.1,00.0,31.2,24.6,04.6,0000.4,0011.99,0008.49,0007.97
2023-01-31 12:22:00,,0825.3,4.98,0.00,22.6,22.9,00.0,31.3,24.6,04.5,0000.4,0011.97,0008.46,0007.94
2023-01-31 12:23:00,,0825.3,4.99,0.00,22.6,22.2,00.0,31.3,24.4,04.5,0000.7,0011.85,0008.43,0007.94
2023-01-31 12:24:00,,0825.4,5.00,0.00,22.6,21.7,00.0,31.3,24.2,04.5,0000.9,0011.95,0008.42,0007.93
2023-01-31 12:25:00,,0825.4,4.99,0.00,22.5,21.2,00.0,31.3,24.1,04.5,0000.7,0011.91,0008.39,0007.91
2023-01-31 12:26:00,,0825.4,4.98,0.00,22.4,20.9,00.0,31.3,24.0,04.5,0000.9,0011.82,0008.33,0007.86
2023-01-31 12:27:00,,0825.4,4.98,0.00,22.4,20.6,00.0,31.3,23.9,04.5,0000.9,0011.74,0008.28,0007.83
2023-01-31 12:28:00,,0825.4,5.02,0.00,22.3,20.4,00.0,31.3,23.8,04.5,0001.3,0011.67,0008.26,0007.83
2023-01-31 12:29:00,,0825.5,5.01,0.00,22.3,21.1,00.0,31.3,24.0,04.4,0001.4,0011.64,0008.26,0007.84
2023-01-31 12:30:00,,0825.5,5.00,0.00,22.4,22.1,00.0,31.2,24.3,04.4,0001.6,0011.55,0008.19,0007.80
2023-01-31 12:31:00,,0825.5,4.98,0.00,22.5,22.9,00.0,31.2,24.5,04.5,0001.5,0011.63,0008.23,0007.84
2023-01-31 12:32:00,,0825.5,5.00,0.00,22.6,22.8,00.0,31.3,24.5,04.5,0001.5,0011.76,0008.30,0007.89
2023-01-31 12:33:00,,0825.4,5.01,0.00,22.6,22.1,00.0,31.3,24.3,04.4,0001.6,0011.80,0008.30,0007.89
2023-01-31 12:34:00,,0825.4,4.99,0.00,22.5,21.5,00.0,31.3,24.1,04.6,0001.3,0012.14,0008.16,0007.77
2023-01-31 12:35:00,,0825.4,5.00,0.00,22.4,21.0,00.0,31.3,24.0,04.6,0001.2,0012.20,0007.97,0007.61
2023-01-31 12:36:00,,0825.4,5.00,0.00,22.4,20.6,00.0,31.3,23.9,04.7,0001.4,0011.95,0007.77,0007.41
2023-01-31 12:37:00,,0825.4,4.98,0.00,22.3,20.7,00.0,31.3,23.9,04.7,0001.5,0011.75,0007.61,0007.25
2023-01-31 12:38:00,,0825.4,5.00,0.00,22.4,21.6,00.0,31.2,24.1,04.7,0001.7,0011.53,0007.44,0007.10
2023-01-31 12:39:00,,0825.4,4.98,0.00,22.5,22.5,00.0,31.2,24.4,04.8,0001.8,0011.24,0007.21,0006.88
2023-01-31 12:40:00,,0825.5,5.01,0.00,22.6,23.0,00.0,31.3,24.5,04.8,0001.9,0010.98,0006.97,0006.63
2023-01-31 12:41:00,,0825.5,4.99,0.00,22.6,22.6,00.0,31.3,24.5,04.7,0001.9,0010.81,0006.82,0006.45
2023-01-31 12:42:00,,0825.4,5.01,0.00,22.6,22.0,00.0,31.3,24.3,04.7,0001.6,0010.64,0006.67,0006.31
2023-01-31 12:43:00,,0825.5,4.99,0.00,22.5,21.5,00.0,31.3,24.1,04.8,0001.6,0010.29,0006.42,0006.11
2023-01-31 12:44:00,,0825.4,5.01,0.00,22.4,21.1,00.0,31.3,24.0,04.8,0001.4,0010.00,0006.22,0005.89
2023-01-31 12:45:00,,0825.3,5.01,0.00,22.4,20.8,00.0,31.3,23.9,04.8,0001.4,0009.55,0006.12,0005.79
2023-01-31 12:46:00,,0825.3,5.00,0.00,22.3,20.5,00.0,31.3,23.8,04.8,0001.5,0009.09,0006.06,0005.72
2023-01-31 12:47:00,,0825.4,4.99,0.00,22.3,21.1,00.0,31.3,24.0,04.8,0001.5,0009.13,0006.07,0005.72
2023-01-31 12:48:00,,0825.5,5.00,0.00,22.4,22.1,00.0,31.2,24.3,04.7,0001.4,0009.16,0006.07,0005.73
2023-01-31 12:49:00,,0825.5,5.00,0.00,22.5,22.8,00.0,31.2,24.5,04.6,0001.2,0009.66,0006.09,0005.73
2023-01-31 12:50:00,,0825.6,4.99,0.00,22.6,22.8,00.0,31.3,24.5,04.5,-000.0,0009.75,0006.13,0005.75
2023-01-31 12:51:00,,0825.4,5.01,0.00,22.6,22.1,00.0,31.3,24.3,04.5,-000.6,0009.73,0006.14,0005.78
2023-01-31 12:52:00,,0825.4,4.98,0.00,22.5,21.6,00.0,31.3,24.2,04.5,-000.5,0009.74,0006.16,0005.80
2023-01-31 12:53:00,,0825.4,5.01,0.00,22.5,21.1,00.0,31.3,24.1,04.6,0000.2,0009.77,0006.16,0005.80
2023-01-31 12:54:00,,0825.4,5.00,0.00,22.4,20.7,00.0,31.3,24.0,04.5,0000.1,0009.94,0006.22,0005.82
2023-01-31 12:55:00,,0825.4,5.00,0.00,22.3,20.5,00.0,31.3,23.8,04.6,-000.3,0009.98,0006.23,0005.84
2023-01-31 12:56:00,,0825.3,5.00,0.00,22.3,20.9,00.0,31.3,23.9,04.6,-000.4,0010.06,0006.26,0005.85
2023-01-31 12:57:00,,0825.1,5.00,0.00,22.4,21.8,00.0,31.2,24.2,04.7,-000.5,0009.96,0006.27,0005.85
2023-01-31 12:58:00,,0825.1,5.00,0.00,22.5,22.6,00.0,31.2,24.4,04.7,-000.9,0009.96,0006.27,0005.84
2023-01-31 12:59:00,,0825.2,5.01,0.00,22.6,23.0,00.0,31.2,24.5,04.7,-000.9,0009.88,0006.22,0005.80
